Tracking 25378 objects as of 22-Jan-2022
HD Live streaming from Space Station
objects crossing your sky now

STARLINK-1851

Track STARLINK-1851 now!
10-day predictions
STARLINK-1851 is classified as:


NORAD ID: 46783
Int'l Code: 2020-074AW
Perigee: 553.0 km
Apogee: 555.8 km
Inclination: 53.1 °
Period: 95.6 minutes
Semi major axis: 6925 km
RCS: Unknown
Launch date: October 24, 2020
Source: United States (US)
Launch site: AIR FORCE EASTERN TEST RANGE (AFETR)
aabbcc
Your satellite tracking list
Your tracking list is empty




NASA's NSSDC Master Catalog

Two Line Element Set (TLE):
1 46783U 20074AW  22021.90286133  .00001915  00000-0  14744-3 0  9999
2 46783  53.0539 240.3428 0002030  69.5305 290.5902 15.06394691 69557
Source of the keplerian elements: AFSPC